+ View the NASA Portal
+ Center for Near-Earth Object Studies
IMPORTANT:
The SSD Announcement email list is now available. Major changes are coming in the near future, including possible hostname and/or URL changes. To be notified of such changes, subscribe to this email list.
Please visit
this page
for more details.
Don't show this message again
JPL Small-Body Database Browser
Search:
[
help
]
233762 (2008 TL67)
Classification:
Main-belt Asteroid
SPK-ID:
2233762
[
Ephemeris
|
Orbit Diagram
|
Orbital Elements
|
Mission Design
|
Physical Parameters
|
Discovery Circumstances
|
Close-Approach Data
]
[ show orbit diagram ]
Orbital Elements at Epoch 2458600.5 (2019-Apr-27.0) TDB
Reference:
JPL 13
(heliocentric ecliptic J2000)
Element
Value
Uncertainty (1-sigma)
Units
e
.1449669592961456
6.2217e-08
a
2.675750088363013
2.1626e-08
au
q
2.287854734216634
1.6173e-07
au
i
3.048368288576548
5.8862e-06
deg
node
150.3785068208585
0.00010193
deg
peri
231.3187355133363
0.00010364
deg
M
152.761636519485
1.9646e-05
deg
t
p
2457922.111384621827
(2017-Jun-17.61138462)
8.4323e-05
TDB
period
1598.699170161034
4.38
1.9382e-05
5.307e-08
d
yr
n
.225183078041967
2.73e-09
deg/d
Q
3.063645442509392
2.4762e-08
au
Orbit Determination Parameters
# obs. used (total)
300
data-arc span
8547 days (23.40 yr)
first obs. used
1995-11-30
last obs. used
2019-04-25
planetary ephem.
DE431
SB-pert. ephem.
SB431-N16
condition code
0
norm. resid. RMS
.62805
source
ORB
producer
Otto Matic
solution date
2019-Jul-14 11:18:09
Additional Information
Earth MOID
= 1.29136 au
Jupiter MOID
= 2.39123 au
T_jup
= 3.362
[ show covariance matrix ]
[
Ephemeris
|
Orbit Diagram
|
Orbital Elements
|
Mission Design
|
Physical Parameters
|
Discovery Circumstances
|
Close-Approach Data
]
Physical Parameter Table
Parameter
Symbol
Value
Units
Sigma
Reference
Notes
absolute magnitude
H
16.3
n/a
MPO433527
diameter
diameter
3.763
km
0.898
urn:nasa:pds:neowise_diameters_albedos::2.0[mainbelt] (http://adsabs.harvard.edu/abs/2011ApJ...741...68M)
geometric albedo
albedo
0.041
0.018
urn:nasa:pds:neowise_diameters_albedos::2.0[mainbelt] (http://adsabs.harvard.edu/abs/2011ApJ...741...68M)
233762 (2008 TL67)
Discovered 2008-Oct-02 by Spacewatch at Kitt Peak
Reference:
20100228/Numbers.arc
Last Updated:
2010-03-03
[ show close-approach data ]
Alternate Designations
2008 TL67
= 2006 DS34
[
Ephemeris
|
Orbit Diagram
|
Orbital Elements
|
Mission Design
|
Physical Parameters
|
Discovery Circumstances
|
Close-Approach Data
]
2019-Dec-10 00:28 UT
(server date/time)
Site Manager:
Ryan S. Park
Webmaster
:
Alan B. Chamberlin